Regional Weather Roundup
Issued by NWS Jackson, KY

Home | Current Version | Previous Version | Text Only | Print | Product List | Glossary On
Versions: 1 2 3 4 5 6 7 8 9 10 11 12 13 14 15 16 17 18 19 20 21 22 23 24 25 26 27 28 29 30 31 32 33 34 35 36 37 38 39 40 41 42 43 44 45 46 47 48 49 50
000
ASUS43 KJKL 020810
RWRJKL

EAST KENTUCKY HOURLY WEATHER ROUNDUP
NATIONAL WEATHER SERVICE JACKSON KY
400 AM EDT THU APR 02 2015

NOTE: "FAIR" INDICATES FEW OR NO CLOUDS BELOW 12,000 FEET WITH
NO SIGNIFICANT WEATHER AND/OR OBSTRUCTIONS TO VISIBILITY.

* THESE REPORTS ARE NOT UNDER NWS QUALITY CONTROL AND MAY NOT
  REPORT WEATHER SUCH AS PRECIPITATION AND FOG.

KYZ079-080-083-085-087-088-110-112-115-119-120-020900
...EASTERN KENTUCKY...

CITY           SKY/WX    TMP DP  RH WIND       PRES   REMARKS
JACKSON        PTCLDY    54  17  23 S6        30.02F
LONDON         CLEAR     50  26  39 S3        30.02F
SOMERSET*      MOCLDY    48  28  46 CALM      30.02F
MONTICELLO*    CLEAR     60  28  29 S8        30.03F
MIDDLESBORO*   CLEAR     40  35  82 CALM      30.09S
HAZARD APT*    SUNNY     48  21  34 E3        30.03F
BLACK MTN*       N/A     48  30  49 S6          N/A
PIKEVILLE APT* CLEAR     54  23  30 S8        30.04F
BIG SANDY*     MOSUNNY   55  23  29 S8        30.04F
MOREHEAD APT*  MOSUNNY   54  19  26 S7        30.03F
$$

KYZ035-036-041-042-044-050-067-078-099-020900
...CENTRAL KENTUCKY...

CITY           SKY/WX    TMP DP  RH WIND       PRES   REMARKS
MT STERLING*   MOCLDY    52  25  35 S7        30.00F
FLEMING/MASON* CLEAR     50  23  34 S9        30.00F
DANVILLE*      PTCLDY    46  32  57 SW5       29.99F
RICHMOND*      PTCLDY    59  23  25 S8        29.98F
LEXINGTON      MOCLDY    54  23  30 SE12      29.97F
FRANKFORT      CLOUDY    53  26  35 SE6       29.95F
$$

KYZ091>093-OHZ055-061-077-WVZ005-015-034-035-042-020900
...SOUTHERN OHIO/WEST VIRGINIA...

CITY           SKY/WX    TMP DP  RH WIND       PRES   REMARKS
COVINGTON      CLOUDY    52  24  33 S9        29.94F
COLUMBUS       PTCLDY    48  25  40 SE7       30.00F
DAYTON         PTCLDY    53  24  32 S12       29.95F
WILMINGTON     CLEAR     46  25  43 SE8       29.97F
HUNTINGTON     CLEAR     40  27  59 E3        30.01F
CHARLESTON     PTCLDY    37  28  70 CALM      30.04F
PINEVILLE*     CLEAR     37  31  78 MISG      30.16S
BECKLEY        CLEAR     49  19  30 SE13      30.12F
BLUEFIELD      PTCLDY    52  24  33 S14G21    30.15F
$$

VAZ002-007-008-TNZ017-027-036-066-071-020900
...SOUTHWEST VIRGINIA/EAST TENNESSEE...

CITY           SKY/WX    TMP DP  RH WIND       PRES   REMARKS
WISE*          PTCLDY    54  25  32 S7        30.12F
JONESVILLE*    MOSUNNY   39  32  75 CALM      30.12S
ABINGDON*      PTCLDY    47  28  46 CALM      30.14S
BRISTOL        PTCLDY    44  31  60 CALM      30.12F
KNOXVILLE      PTCLDY    46  36  68 NE5       30.07F
OAK RIDGE      CLEAR     46  37  71 CALM      30.09F
CROSSVILLE     PTCLDY    58  27  30 S5        30.07S
NASHVILLE      PTCLDY    63  41  44 S5        29.98S
$$

...KEY TO REMARKS...
VSB - VISIBILITY IN MILES
WCI - WIND CHILL INDEX
HX  - HEAT INDEX

$$


USA.gov is the U.S. government's official web portal to all federal, state and local government web resources and services.